Waarnemingen

Advertentie
Mijn weer
Gueret-St Laurent, Frankrijk (7361): temperatuur & dauwpunt: 18.10.2017 09:00:00 - 24.10.2017 09:00:00 (CEST)Gueret-St Laurent, Frankrijk (7361): temperatuur 5cm: 18.10.2017 09:00:00 - 24.10.2017 09:00:00 (CEST)Gueret-St Laurent, Frankrijk (7361): temperatuur -20cm & temperatuur -100cm: 18.10.2017 09:00:00 - 24.10.2017 09:00:00 (CEST)Gueret-St Laurent, Frankrijk (7361): windsnelheid & windstoten: 18.10.2017 09:00:00 - 24.10.2017 09:00:00 (CEST)Gueret-St Laurent, Frankrijk (7361): windrichting: 18.10.2017 09:00:00 - 24.10.2017 09:00:00 (CEST)Gueret-St Laurent, Frankrijk (7361): luchtdruk: 18.10.2017 09:00:00 - 24.10.2017 09:00:00 (CEST)Gueret-St Laurent, Frankrijk (7361): zicht: 18.10.2017 09:00:00 - 24.10.2017 09:00:00 (CEST)Gueret-St Laurent, Frankrijk (7361): Zonneschijnduur: 18.10.2017 09:00:00 - 24.10.2017 09:00:00 (CEST)Gueret-St Laurent, Frankrijk (7361): neerslag: 18.10.2017 09:00:00 - 24.10.2017 09:00:00 (CEST)
Datum & Tijd tt [°C] td [°C] tt 5cm [°C] tt -20cm [°C] tt -100cm [°C] ff [km/u] ff [kn] fx [km/u] fx [kn] dd ppp [hPa] vv [km] sd [min] rr [mm]
24.10.2017 09:00:00 11,5 11,0 11,2 14,2 15,6 3 1 8 4 O 1026,9 15 0 0,0
24.10.2017 08:00:00 11,3 10,8 11,2 14,2 15,6 4 2 8 4 O 1026,6 10 0 0,0
24.10.2017 07:00:00 11,3 10,8 11,1 14,2 15,6 4 2 6 4 O 1026,6 14 0 0,0
24.10.2017 06:00:00 11,2 10,7 11,0 14,2 15,6 2 1 5 3 OZO 1026,6 15 0 0,0
24.10.2017 05:00:00 11,2 10,6 11,0 14,2 15,6 0 0 4 2 N 1026,7 4,6 0 0,0
24.10.2017 04:00:00 11,1 10,5 11,0 14,1 15,6 0 0 5 3 N 1026,6 18 0 0,2
24.10.2017 03:00:00 11,1 10,5 10,9 14,1 15,6 2 1 4 2 ONO 1026,9 10 0 0,0
24.10.2017 02:00:00 11,0 10,4 10,8 14,1 15,6 0 0 5 3 N 1027,0 11 0 0,0
24.10.2017 01:00:00 11,0 10,4 10,8 14,1 15,6 0 0 3 2 N 1027,1 10 0 0,0
24.10.2017 00:00:00 11,0 10,2 10,8 14,1 15,6 0 0 3 2 N 1027,2 5 0 0,0
23.10.2017 23:00:00 11,0 10,1 10,7 14,1 15,6 0 0 4 2 N 1027,1 9 0 0,0
23.10.2017 22:00:00 11,2 9,8 10,7 14,1 15,6 2 1 8 4 O 1027,0 14 0 0,2
23.10.2017 21:00:00 11,4 9,1 10,8 14,1 15,6 0 0 6 3 N 1026,8 13 0 0,0
23.10.2017 20:00:00 11,5 9,1 10,4 14,1 15,6 5 3 8 4 O 1026,6 20 0 0,0
23.10.2017 19:00:00 11,9 8,7 11,3 14,0 15,6 5 3 11 6 Z 1026,2 20 3 0,0
23.10.2017 18:00:00 12,7 8,8 12,5 14,0 15,6 5 3 18 10 ZW 1026,0 20 5 0,0
23.10.2017 17:00:00 12,9 8,6 13,0 13,9 15,6 5 3 12 6 ZZW 1026,1 20 0 0,0
23.10.2017 16:00:00 12,9 8,2 13,5 14,0 15,6 6 3 16 9 ZZW 1026,2 20 0 0,0
23.10.2017 15:00:00 13,4 8,0 14,8 14,0 15,7 5 3 18 10 WZW 1026,3 20 14 0,0
23.10.2017 14:00:00 13,3 8,1 14,1 14,0 15,7 8 4 20 11 WZW 1026,5 20 6 0,0
23.10.2017 13:00:00 12,6 7,3 13,3 14,0 15,7 6 3 14 8 W 1027,0 20 1 0,0
23.10.2017 12:00:00 11,8 7,5 12,1 14,0 15,7 3 2 11 6 W 1027,0 20 2 0,0
23.10.2017 11:00:00 10,7 7,6 11,1 14,1 15,7 5 3 10 5 WZW 1027,2 20 2 0,0
23.10.2017 10:00:00 9,5 7,4 8,7 14,1 15,6 0 0 6 3 N 1026,9 20 0 0,0
23.10.2017 09:00:00 8,9 7,0 8,5 14,1 15,7 0 0 4 2 N 1026,6 20 0 0,0
23.10.2017 08:00:00 8,9 6,7 8,4 14,1 15,7 3 1 11 6 OZO 1026,1 20 0 0,0
23.10.2017 07:00:00 9,2 6,3 8,5 14,2 15,7 5 3 19 10 WZW 1026,4 20 0 0,0
23.10.2017 06:00:00 9,0 6,4 8,0 14,2 15,7 5 3 16 9 WZW 1026,4 20 0 0,0
23.10.2017 05:00:00 8,2 7,0 7,0 14,2 15,7 2 1 8 5 ZZW 1026,1 18 0 0,0
23.10.2017 04:00:00 7,8 6,6 6,7 14,2 15,7 0 0 8 4 N 1026,7 19 0 0,0
23.10.2017 03:00:00 7,7 6,0 6,5 14,3 15,7 0 0 13 7 N 1026,9 18 0 0,0
23.10.2017 02:00:00 8,5 6,6 7,2 14,3 15,7 4 2 14 7 W 1026,8 20 0 0,0
23.10.2017 01:00:00 8,5 6,3 7,4 14,3 15,7 4 2 16 9 W 1027,0 20 0 0,0
23.10.2017 00:00:00 8,8 6,2 7,2 14,3 15,7 5 3 16 8 WZW 1026,8 20 0 0,0
22.10.2017 23:00:00 8,9 6,0 7,6 14,3 15,7 6 4 25 13 WZW 1026,5 20 0 0,0
22.10.2017 22:00:00 9,5 6,2 8,1 14,3 15,7 8 4 21 11 WZW 1026,0 20 0 0,0
22.10.2017 21:00:00 9,6 5,6 7,8 14,3 15,7 8 4 21 11 WZW 1025,8 20 0 0,0
22.10.2017 20:00:00 9,0 5,7 4,6 14,3 15,7 4 2 11 6 WZW 1025,5 20 0 0,0
22.10.2017 19:00:00 8,9 5,6 5,9 14,3 15,7 3 2 24 13 WZW 1024,9 20 2 0,2
22.10.2017 18:00:00 11,2 4,9 10,8 14,4 15,7 10 6 31 17 W 1024,1 20 3 0,0
22.10.2017 17:00:00 11,1 5,2 11,1 14,3 15,7 11 6 40 21 W 1023,9 20 3 0,0
22.10.2017 16:00:00 11,8 4,7 11,9 14,4 15,7 14 8 34 19 W 1023,4 20 15 0,0
22.10.2017 15:00:00 13,0 5,4 14,0 14,4 15,7 14 8 37 20 W 1023,1 20 52 0,0
22.10.2017 14:00:00 11,9 5,3 14,9 14,4 15,7 13 7 37 20 W 1023,9 20 45 0,0
22.10.2017 13:00:00 11,9 6,0 11,1 14,5 15,7 13 7 36 19 W 1024,3 20 22 0,0
22.10.2017 12:00:00 10,6 5,6 10,7 14,5 15,7 13 7 33 18 W 1024,6 20 10 0,0
22.10.2017 11:00:00 9,9 5,9 9,1 14,6 15,7 12 7 31 17 WZW 1024,6 20 11 0,0
22.10.2017 10:00:00 9,2 6,3 7,2 14,6 15,7 11 6 29 15 WZW 1024,6 20 9 0,0
22.10.2017 09:00:00 8,1 5,9 6,1 14,7 15,7 8 4 18 10 ZW 1024,5 20 5 0,0
22.10.2017 08:00:00 7,9 6,2 5,9 14,7 15,7 8 4 21 12 ZW 1024,1 20 0 0,2
22.10.2017 07:00:00 8,2 6,2 6,8 14,7 15,7 9 5 20 11 ZW 1023,8 20 0 0,4
22.10.2017 06:00:00 8,4 6,5 6,7 14,8 15,7 9 5 19 11 ZW 1023,3 20 0 0,0
22.10.2017 05:00:00 8,5 6,3 7,0 14,8 15,7 8 5 23 12 ZW 1023,0 20 0 0,0
22.10.2017 04:00:00 8,6 6,4 7,2 14,9 15,7 9 5 22 12 ZZW 1023,3 20 0 0,0
22.10.2017 03:00:00 8,9 6,3 7,4 15,0 15,7 10 5 25 14 ZZW 1023,7 20 0 0,0
22.10.2017 02:00:00 9,1 6,9 7,4 15,0 15,7 10 5 24 13 ZZW 1023,5 20 0 0,0
22.10.2017 01:00:00 9,3 7,4 7,1 15,0 15,7 9 5 27 14 ZZW 1023,4 20 0 0,0
22.10.2017 00:00:00 9,1 7,0 7,3 15,0 15,7 7 4 23 12 ZZW 1023,2 20 0 0,0
21.10.2017 23:00:00 9,5 7,3 7,8 15,0 15,7 8 4 19 10 ZZW 1022,8 20 0 0,0
21.10.2017 22:00:00 9,7 7,5 8,5 15,0 15,7 8 4 31 17 WZW 1022,5 20 0 1,6
21.10.2017 21:00:00 10,6 8,4 8,5 15,0 15,7 4 2 23 12 WZW 1021,9 19 0 0,6
21.10.2017 20:00:00 11,4 8,4 9,9 15,0 15,7 10 5 27 15 ZZW 1021,3 19 0 0,0
21.10.2017 19:00:00 11,9 8,4 10,3 15,0 15,7 7 4 29 16 ZW 1020,3 20 8 0,0
21.10.2017 18:00:00 12,5 9,0 12,5 15,0 15,7 12 7 31 17 ZZW 1019,9 18 5 0,0
21.10.2017 17:00:00 13,0 9,4 13,0 15,0 15,7 14 8 36 19 ZZW 1019,8 19 5 0,0
21.10.2017 16:00:00 12,7 10,2 10,4 15,0 15,7 10 6 42 23 ZW 1019,6 19 0 2,0
21.10.2017 15:00:00 13,4 10,2 12,7 15,0 15,7 12 6 24 13 ZZW 1019,3 12 0 0,4
21.10.2017 14:00:00 14,3 10,1 13,2 15,0 15,7 10 5 29 15 ZZW 1019,4 20 0 0,2
21.10.2017 13:00:00 14,5 10,3 13,2 15,1 15,7 8 4 17 9 ZZW 1019,7 18 2 0,0
21.10.2017 12:00:00 14,0 9,8 12,9 15,1 15,7 8 5 21 11 WZW 1019,6 16 0 0,0
21.10.2017 11:00:00 13,9 11,1 12,9 15,1 15,7 13 7 28 15 WZW 1019,3 19 0 0,0
21.10.2017 10:00:00 15,0 12,1 14,2 15,1 15,7 10 5 31 17 ZW 1018,4 20 0 0,0
21.10.2017 09:00:00 14,9 12,2 10,7 15,1 15,7 6 3 16 9 WNW 1017,7 20 0 0,0
21.10.2017 08:00:00 13,3 11,2 10,7 15,1 15,7 5 3 22 12 ZZO 1016,7 20 0 0,0
21.10.2017 07:00:00 14,5 11,5 13,0 15,1 15,7 16 9 24 13 O 1016,2 20 0 0,0
21.10.2017 06:00:00 14,5 11,5 13,1 15,2 15,7 11 6 20 11 ZO 1016,1 20 0 0,0
21.10.2017 05:00:00 14,5 11,8 10,4 15,2 15,7 11 6 19 10 ZZO 1016,2 20 0 0,0
21.10.2017 04:00:00 12,1 10,7 8,7 15,2 15,7 9 5 17 9 ZO 1016,8 20 0 0,2
21.10.2017 03:00:00 14,1 10,5 11,9 15,2 15,7 9 5 23 13 ZZO 1016,8 20 0 0,0
21.10.2017 02:00:00 14,2 11,0 11,1 15,3 15,7 14 8 33 18 Z 1016,8 20 0 0,0
21.10.2017 01:00:00 14,3 11,4 9,1 15,3 15,7 10 6 26 14 Z 1017,1 20 0 0,0
21.10.2017 00:00:00 12,2 10,4 8,9 15,2 15,7 6 3 14 8 OZO 1017,6 20 0 0,0
20.10.2017 23:00:00 12,5 10,6 7,6 15,3 15,7 6 3 10 5 ZO 1017,3 20 0 0,0
20.10.2017 22:00:00 13,0 10,9 8,9 15,3 15,8 5 3 10 5 ZO 1017,2 20 0 0,0
20.10.2017 21:00:00 14,0 11,7 9,9 15,2 15,7 8 4 16 9 ZZO 1016,9 20 0 0,0
20.10.2017 20:00:00 15,0 11,8 12,7 15,2 15,7 7 4 21 11 ZZO 1016,9 20 0 0,0
20.10.2017 19:00:00 15,9 12,3 14,9 15,2 15,7 10 6 23 13 Z 1016,5 20 9 0,0
20.10.2017 18:00:00 16,2 12,4 15,9 15,1 15,7 7 4 26 14 ZZW 1016,5 20 14 0,0
20.10.2017 17:00:00 16,9 12,2 16,7 15,1 15,7 15 8 28 15 ZZW 1016,5 20 49 0,0
20.10.2017 16:00:00 16,3 12,3 16,8 15,1 15,7 12 6 20 11 Z 1016,4 20 0 0,0
20.10.2017 15:00:00 15,6 12,0 15,0 15,1 15,7 7 4 18 10 ZZW 1016,7 20 0 0,0
20.10.2017 14:00:00 15,5 11,9 14,6 15,1 15,7 9 5 18 10 ZW 1017,1 20 0 0,0
20.10.2017 13:00:00 14,1 12,0 14,1 15,1 15,7 9 5 20 11 ZW 1017,6 16 0 0,0
20.10.2017 12:00:00 13,9 12,8 13,9 15,1 15,8 3 2 14 8 ZZW 1017,3 7 0 0,4
20.10.2017 11:00:00 13,8 12,9 13,4 15,2 15,8 5 3 15 8 ZZW 1017,0 6 0 0,6
20.10.2017 10:00:00 13,5 12,4 13,0 15,1 15,7 3 1 13 7 ZZW 1016,4 4,6 0 0,2
20.10.2017 09:00:00 13,6 12,2 13,0 15,2 15,7 11 6 29 15 Z 1015,3 9 0 0,2
20.10.2017 08:00:00 13,8 11,8 12,9 15,2 15,7 16 8 27 15 Z 1014,1 17 0 0,0
20.10.2017 07:00:00 14,4 11,2 13,6 15,2 15,8 14 7 31 17 ZZW 1014,1 15 0 0,0
20.10.2017 06:00:00 14,5 10,9 13,4 15,2 15,7 9 5 29 16 Z 1013,7 20 0 0,0
20.10.2017 05:00:00 14,2 10,8 12,8 15,2 15,7 10 5 29 16 ZZW 1013,3 20 0 0,0
20.10.2017 04:00:00 14,4 10,6 12,3 15,2 15,8 14 7 36 19 ZZW 1013,0 20 0 0,0
20.10.2017 03:00:00 15,3 10,7 13,4 15,2 15,7 16 8 31 17 Z 1012,1 20 0 0,0
20.10.2017 02:00:00 15,2 10,8 14,0 15,2 15,8 3 2 31 17 Z 1012,1 20 0 0,0
20.10.2017 01:00:00 15,3 11,7 13,4 15,2 15,7 17 9 38 20 Z 1011,8 20 0 0,0
20.10.2017 00:00:00 14,8 11,6 12,0 15,2 15,8 6 4 29 16 Z 1011,9 20 0 0,0
19.10.2017 23:00:00 13,2 11,3 9,9 15,2 15,8 2 1 13 7 ZO 1012,3 20 0 0,0
19.10.2017 22:00:00 13,6 11,1 9,7 15,2 15,7 8 4 16 9 ZZO 1011,6 20 0 0,0
19.10.2017 21:00:00 13,6 11,5 10,8 15,1 15,7 6 3 14 8 ZO 1011,3 20 0 0,0
19.10.2017 20:00:00 14,0 11,7 10,8 15,1 15,7 6 3 12 7 ZO 1011,4 20 0 0,0
19.10.2017 19:00:00 16,0 12,0 14,7 15,1 15,7 5 3 16 9 ZZO 1010,7 20 19 0,0
19.10.2017 18:00:00 16,3 12,3 15,1 15,1 15,8 8 4 20 11 Z 1010,3 20 19 0,0
19.10.2017 17:00:00 16,4 12,6 15,3 15,0 15,8 13 7 29 16 ZZO 1010,0 20 30 0,0
19.10.2017 16:00:00 15,4 13,6 14,8 15,0 15,8 6 4 21 11 ZZW 1010,6 9 0 0,8
19.10.2017 15:00:00 16,3 12,8 15,1 15,0 15,8 18 10 33 18 Z 1010,4 9 0 0,0
19.10.2017 14:00:00 18,8 11,1 18,2 15,0 15,8 16 9 34 18 Z 1009,7 20 0 0,0
19.10.2017 13:00:00 20,4 12,4 22,0 15,0 15,8 15 8 31 17 Z 1009,9 20 39 0,0
19.10.2017 12:00:00 20,2 13,2 18,0 15,0 15,8 9 5 31 17 ZZW 1009,8 20 26 0,0
19.10.2017 11:00:00 17,3 13,8 14,5 15,0 15,8 3 2 6 3 WNW 1010,2 20 29 0,0
19.10.2017 10:00:00 13,8 13,5 12,1 15,1 15,8 0 0 5 3 N 1010,8 15 9 0,0
19.10.2017 09:00:00 11,8 11,3 11,1 15,1 15,8 3 1 4 2 WNW 1010,9 8 0 0,4
19.10.2017 08:00:00 10,9 10,3 9,6 15,2 15,8 0 0 4 2 N 1010,5 8 0 0,0
19.10.2017 07:00:00 10,5 9,9 8,8 15,2 15,8 3 2 6 3 OZO 1010,1 16 0 0,0
19.10.2017 06:00:00 10,5 9,9 7,8 15,2 15,8 5 3 11 6 ZO 1009,6 19 0 0,0
19.10.2017 05:00:00 9,9 9,4 6,0 15,2 15,8 2 1 9 5 O 1009,6 11 0 0,0
19.10.2017 04:00:00 9,4 8,9 6,4 15,3 15,8 4 2 9 5 O 1009,9 5 0 0,0
19.10.2017 03:00:00 10,3 9,5 7,1 15,3 15,8 0 0 6 3 N 1010,2 17 0 0,0
19.10.2017 02:00:00 10,7 9,9 7,7 15,3 15,8 0 0 5 3 N 1010,2 18 0 0,0
19.10.2017 01:00:00 10,5 9,3 7,3 15,3 15,8 0 0 5 3 N 1010,5 14 0 0,0
19.10.2017 00:00:00 11,3 9,4 8,3 15,3 15,8 3 1 4 2 O 1010,5 19 0 0,0
18.10.2017 23:00:00 12,1 10,2 9,1 15,2 15,8 5 3 8 5 O 1010,9 20 0 0,0
18.10.2017 22:00:00 12,7 10,2 9,3 15,2 15,8 0 0 7 4 N 1010,9 20 0 0,0
18.10.2017 21:00:00 13,9 9,7 9,2 15,1 15,8 3 2 7 4 OZO 1010,5 20 0 0,0
18.10.2017 20:00:00 15,7 10,2 11,8 15,1 15,7 3 2 11 6 ZZO 1009,9 20 0 0,0
18.10.2017 19:00:00 17,5 9,4 12,1 15,0 15,8 3 1 15 8 ZZO 1008,6 18 13 0,0
18.10.2017 18:00:00 21,1 10,0 19,1 15,0 15,8 9 5 21 11 O 1008,7 17 48 0,0
18.10.2017 17:00:00 23,2 11,3 23,5 14,9 15,8 7 4 18 10 ZZO 1008,8 13 55 0,0
18.10.2017 16:00:00 23,5 11,2 26,1 14,8 15,8 9 5 20 11 ZO 1009,0 20 60 0,0
18.10.2017 15:00:00 23,3 11,4 22,4 14,8 15,8 8 5 23 13 ZO 1009,8 19 49 0,0
18.10.2017 14:00:00 21,9 9,4 22,9 14,9 15,8 11 6 27 15 ZZO 1010,9 20 44 0,0
18.10.2017 13:00:00 20,8 11,7 22,2 14,9 15,8 6 4 13 7 O 1011,7 20 41 0,0
18.10.2017 12:00:00 18,4 11,2 20,1 14,9 15,8 8 5 14 8 OZO 1012,4 19 27 0,0
18.10.2017 11:00:00 16,7 10,8 14,4 15,0 15,8 8 5 14 7 OZO 1013,3 19 22 0,0
18.10.2017 10:00:00 13,8 8,8 13,2 15,1 15,8 9 5 17 9 OZO 1013,9 20 15 0,0
18.10.2017 09:00:00 12,5 8,4 9,5 15,1 15,8 9 5 16 8 OZO 1014,1 20 24 0,0

tt = temperatuur
td = dauwpunt
tt 5cm = temperatuur 5cm
tt -20cm = temperatuur -20cm
tt -100cm = temperatuur -100cm
ff = windsnelheid
fx = windstoten
dd = windrichting
ppp = luchtdruk
vv = zicht
sd = Zonneschijnduur
rr = neerslag

Weerstations in de omgeving